Flag for Germany Weather past 2 weeks in Landsberg am Lech, Bavaria, Germany

Now
45 °F

Passing clouds.


Feels Like: 45 °F
Forecast: 36 / 47 °F
Wind: 2 mph from Southeast

Location: Landsberg

Current Time: Oct 26, 2014 at 7:11:38 AM

Latest Report: Oct 26, 2014 at 6:20 AM


Visibility: N/A

Pressure: 30.27 "Hg

Humidity: 100%

Dew point: 45 °F

Location of Landsberg am LechLocation

Historic Weather in Landsberg am Lech — Graph

°F

Landsberg am Lech temperature yesterday

Maximum temperature yesterday: 48 °F (at 12:20 PM)
Minimum temperature yesterday: 32 °F (at 4:20 AM)
Average temperature yesterday: 41 °F

Past Weeks' High & Low Weather Summary

 TemperatureHumidityPressure
High72 °F (Oct 19, 2:20 PM)100% (Oct 12, 1:20 AM)30.27 "Hg (Oct 12, 1:20 AM)
Low32 °F (Oct 25, 4:20 AM)44% (Oct 19, 3:20 PM)29.68 "Hg (Oct 21, 8:20 PM)
Average52 °F85%30.02 "Hg
* Reported Oct 11 6:20 AM — Oct 26 5:20 AM, Landsberg am Lech, Weather by CustomWeather, © 2014

Note: Actual official high and low records may vary slightly from our data, if they occured in-between our weather recording intervals... More about our weather records

Advertising

Landsberg am Lech weather history for previous 24 hours

 ConditionsComfort  
Time TempWeatherWind HumidityBarometerVisibility
5:20 AM
Oct 26
45 °FPassing clouds.2 mph100%30.27 "HgN/A
4:20 AM45 °FPassing clouds.1 mph100%30.27 "HgN/A
3:20 AM45 °FPassing clouds.2 mph100%30.27 "HgN/A
2:20 AM46 °FPassing clouds.1 mph93%30.27 "HgN/A
2:20 AM46 °FPassing clouds.3 mph93%30.27 "HgN/A
1:20 AM45 °FPassing clouds.5 mph100%30.24 "HgN/A
12:20 AM46 °FPassing clouds.5 mph93%30.24 "HgN/A
11:20 PM
Oct 25
45 °FPassing clouds.3 mph100%30.24 "HgN/A
10:20 PM45 °FPassing clouds.5 mph100%30.24 "HgN/A
9:20 PM45 °FPartly cloudy.6 mph100%30.21 "Hg6 mi
8:20 PM46 °FPartly cloudy.5 mph93%30.21 "Hg5 mi
7:20 PM46 °FPassing clouds.7 mph93%30.21 "Hg4 mi
6:20 PM46 °FLight rain. Broken clouds.6 mph93%30.18 "Hg4 mi
5:20 PM46 °FBroken clouds.5 mph87%30.18 "HgN/A
4:20 PM48 °FLight rain. Broken clouds.1 mph82%30.18 "Hg4 mi
3:20 PM48 °FLight rain. Partly sunny.3 mph87%30.15 "HgN/A
2:20 PM48 °FPartly sunny.6 mph82%30.15 "HgN/A
1:20 PM48 °FPartly sunny.3 mph76%30.15 "HgN/A
12:20 PM48 °FPartly sunny.2 mph76%30.15 "HgN/A
11:20 AM45 °FPartly sunny.1 mph81%30.15 "HgN/A
10:20 AM43 °FPartly sunny.3 mph81%30.15 "HgN/A
9:20 AM39 °FBroken clouds.2 mph87%30.12 "HgN/A
8:20 AM36 °FPassing clouds.5 mph93%30.12 "HgN/A
7:20 AM34 °FFog.2 mph93%30.09 "HgN/A
Weather by CustomWeather, © 2014

See weather overviewHow to use our weather pages